"2010-04-16 00:00:00",29260,4.711,110.8,7.761,0.346,12.05,105.5105,13.38,14.42,29.94,0,110.5,13.31,14.18,72.8
"2010-04-16 00:00:30",29261,5.971,118,3.866,0.409,12.54,105.5105,13.38,14.42,30.01,0,110.5,13.31,14.18,80.0
"2010-04-16 00:01:00",29262,6.492,105.6,6.275,0.382,13.22,105.5085,13.37,14.41,30.21,0,110.5,13.31,14.17,67.6
"2010-04-16 00:01:30",29263,5.95,99.1,5.955,0.34,13.5,105.5015,13.36,14.39,30.2,0,110.5,13.31,14.15,61.1
"2010-04-16 00:02:00",29264,6.092,94.9,8.67,0.503,14,105.4899,13.33,14.47,30.17,0,110.5,13.31,14.13,56.9
"2010-04-16 00:02:30",29265,8.4,117.2,8.21,0.967,18.01,105.4795,13.3,14.65,30.57,0,110.5,13.28,14.10,79.2
"2010-04-16 00:03:00",29266,7.029,113,13.38,1.645,16.03,105.4773,13.29,14.43,30.42,0,110.5,13.28,14.09,75.0
"2010-04-16 00:03:30",29267,8.1,114.7,7.688,1.589,15.38,105.4767,13.29,14.52,30.41,0,110.5,13.27,14.09,76.7
"2010-04-16 00:04:00",29268,6.593,102.8,9.66,1.717,14.8,105.4767,13.29,14.49,30.4,0,110.4,13.27,14.09,64.8
"2010-04-16 00:04:30",29269,5.106,97.1,3.134,0.203,12.43,105.4767,13.29,14.37,30.29,0,110.5,13.31,14.09,59.1
"2010-04-16 00:05:00",29270,4.652,98.6,3.69,0.146,12,105.4773,13.29,14.32,30.14,0,110.5,13.31,14.09,60.6
"2010-04-16 00:05:30",29271,4.566,101.3,3.654,0.145,12.1,105.479,13.3,14.33,30.06,0,110.5,13.31,14.10,63.3
"2010-04-16 00:06:00",29272,5.441,105.4,2.22,0.502,12.5,105.482,13.31,14.31,30.06,0,110.4,13.32,14.10,67.4
"2010-04-16 00:06:30",29273,6.116,112,2.656,0.35,12.95,105.4785,13.3,14.32,30.06,0,110.4,13.32,14.10,74.0
"2010-04-16 00:07:00",29274,5.627,109.5,7.727,0.496,13.35,105.4704,13.28,14.3,30.12,0,110.4,13.32,14.07,71.5
"2010-04-16 00:07:30",29275,7.486,102.8,6.337,1.524,16.7,105.4568,13.24,14.44,30.3,0,110.4,13.29,14.04,64.8
"2010-04-16 00:08:00",29276,8.74,112.4,6.964,1.056,17.55,105.4571,13.24,14.59,30.45,0,110.4,13.29,14.04,74.4
"2010-04-16 00:08:30",29277,8.06,119,10,1.363,16.62,105.4604,13.25,14.46,30.35,0,110.4,13.29,14.05,81.0
"2010-04-16 00:09:00",29278,8.27,122.3,6.636,1.165,15.91,105.4631,13.26,14.47,30.41,0,110.4,13.29,14.06,84.3
"2010-04-16 00:09:30",29279,7.534,120.1,6.861,1.441,14.04,105.4675,13.27,14.35,30.34,0,110.4,13.29,14.07,82.1
"2010-04-16 00:10:00",29280,5.851,117.1,2.667,0.156,11.97,105.4634,13.26,14.28,30.33,0,110.4,13.32,14.06,79.1
"2010-04-16 00:10:30",29281,6.416,112.3,2.655,0.389,12.08,105.4461,13.21,14.26,30.31,0,110.4,13.32,14.01,74.3
"2010-04-16 00:11:00",29282,5.806,110.4,3.825,0.53,12.5,105.442,13.2,14.24,30.27,0,110.4,13.32,14.00,72.4
"2010-04-16 00:11:30",29283,5.96,102.9,1.796,0.252,12.96,105.4447,13.21,14.24,30.32,0,110.4,13.33,14.01,64.9
"2010-04-16 00:12:00",29284,6.029,104.9,3.118,0.343,13.32,105.4447,13.21,14.23,30.29,0,110.4,13.33,14.01,66.9
"2010-04-16 00:12:30",29285,6.699,117.9,6.956,1.495,16.32,105.443,13.21,14.48,30.54,0,110.4,13.29,14.00,79.9
"2010-04-16 00:13:00",29286,6.323,127.4,9.41,1.388,16.99,105.4278,13.17,14.42,30.54,0,110.4,13.29,13.97,89.4
"2010-04-16 00:13:30",29287,4.874,121.4,8.76,1.233,13.97,105.4129,13.13,14.34,30.51,0,110.4,13.29,13.93,83.4
"2010-04-16 00:14:00",29288,6.802,123.3,6.256,1.334,16.26,105.4109,13.12,14.44,30.62,0,110.4,13.29,13.92,85.3
"2010-04-16 00:14:30",29289,5.918,118.1,4.808,1.33,14.1,105.4109,13.12,14.36,30.6,0,110.4,13.29,13.92,80.1
"2010-04-16 00:15:00",29290,5.647,113,2.74,0.341,11.99,105.4109,13.12,14.16,30.44,0,110.4,13.33,13.92,75.0
"2010-04-16 00:15:30",29291,5.557,121.7,2.399,0.235,12.06,105.4109,13.12,14.16,30.46,0,110.4,13.32,13.92,83.7
"2010-04-16 00:16:00",29292,5.939,118.7,3.154,0.391,12.48,105.4103,13.12,14.13,30.47,0,110.4,13.33,13.92,80.7
"2010-04-16 00:16:30",29293,6.6,110.9,3.116,0.335,12.97,105.4027,13.1,14.13,30.51,0,110.4,13.33,13.90,72.9
"2010-04-16 00:17:00",29294,6.725,113,1.765,0.297,13.31,105.3892,13.07,14.13,30.52,0,110.4,13.33,13.87,75.0
"2010-04-16 00:17:30",29295,7.694,127.4,7.391,1.362,16.98,105.3779,13.04,14.37,30.73,0,110.4,13.29,13.84,89.4
"2010-04-16 00:18:00",29296,7.671,125.2,5.929,1.509,16.51,105.3771,13.04,14.29,30.8,0,110.4,13.29,13.84,87.2
"2010-04-16 00:18:30",29297,8.22,131,6.137,1.394,16.65,105.3771,13.04,14.28,30.77,0,110.4,13.29,13.84,93.0
"2010-04-16 00:19:00",29298,7.468,125.5,10.24,1.125,15.34,105.3771,13.04,14.29,30.8,0,110.4,13.28,13.84,87.5
"2010-04-16 00:19:30",29299,6.223,117.8,3.132,0.389,12.85,105.3771,13.04,14.2,30.78,0,110.4,13.32,13.84,79.8
"2010-04-16 00:20:00",29300,5.89,122.4,3.876,0.347,12.09,105.3768,13.04,14.06,30.78,0,110.4,13.32,13.83,84.4
"2010-04-16 00:20:30",29301,5.997,119.6,2.837,0.17,12.38,105.3751,13.03,14.06,30.86,0,110.4,13.32,13.83,81.6
"2010-04-16 00:21:00",29302,6.603,109.6,3.577,0.334,12.83,105.3658,13.01,14.04,30.89,0,110.4,13.32,13.81,71.6
"2010-04-16 00:21:30",29303,6.514,117.3,6.381,0.956,13.59,105.3641,13,14.03,30.91,0,110.4,13.29,13.80,79.3
"2010-04-16 00:22:00",29304,8.41,124.9,6.927,1.404,15.72,105.354,12.98,14.21,31.11,0,110.4,13.29,13.78,86.9
"2010-04-16 00:22:30",29305,9.13,127.6,6.136,1.221,17.27,105.3438,12.95,14.25,31.23,0,110.4,13.29,13.75,89.6
"2010-04-16 00:23:00",29306,8.08,128.6,7.964,1.328,15.56,105.3433,12.95,14.21,31.29,0,110.4,13.29,13.75,90.6
"2010-04-16 00:23:30",29307,8.78,127.2,6.562,1.054,16.06,105.3433,12.95,14.21,31.35,0,110.4,13.29,13.75,89.2
"2010-04-16 00:24:00",29308,5.961,110.5,6.031,0.218,12.27,105.3433,12.95,14.08,31.25,0,110.4,13.33,13.75,72.5
"2010-04-16 00:24:30",29309,6.341,109.3,5.105,0.269,12.06,105.3433,12.95,14.01,31.11,0,110.4,13.33,13.75,71.3
"2010-04-16 00:25:00",29310,6.442,108.9,3.675,0.293,12.34,105.3421,12.95,13.98,30.85,0,110.4,13.33,13.75,70.9
"2010-04-16 00:25:30",29311,6.672,108.1,3.017,0.19,12.75,105.3371,12.94,13.98,30.86,0,110.4,13.33,13.73,70.1
"2010-04-16 00:26:00",29312,6.286,109.5,2.091,0.416,13.14,105.3287,12.91,13.97,30.85,0,110.4,13.33,13.71,71.5
"2010-04-16 00:26:30",29313,7.355,117.2,7.435,1.429,15.76,105.3143,12.88,14.22,31.08,0,110.4,13.3,13.67,79.2
"2010-04-16 00:27:00",29314,7.517,119.3,8.33,1.457,16.03,105.3136,12.88,14.16,31.06,0,110.4,13.3,13.67,81.3
"2010-04-16 00:27:30",29315,7.28,113.5,5.728,1.217,14.93,105.3157,12.88,14.16,31.06,0,110.4,13.3,13.68,75.5
"2010-04-16 00:28:00",29316,8.05,119.5,6.47,1.143,16.25,105.3168,12.88,14.2,31.14,0,110.4,13.3,13.68,81.5
"2010-04-16 00:28:30",29317,6.839,121.7,4.345,0.983,13.28,105.324,12.9,13.97,30.9,0,110.4,13.3,13.70,83.7
"2010-04-16 00:29:00",29318,6.774,120.3,1.528,0.165,11.95,105.3281,12.91,13.94,30.99,0,110.4,13.33,13.71,82.3
"2010-04-16 00:29:30",29319,6.572,118.7,2.343,0.16,12.26,105.3314,12.92,13.92,31.29,0,110.4,13.33,13.72,80.7
"2010-04-16 00:30:00",29320,6.137,124.9,1.693,0.159,12.61,105.33,12.92,13.92,31.45,0,110.4,13.34,13.71,86.9
"2010-04-16 00:30:30",29321,6.154,127.5,2.484,0.333,13.05,105.3265,12.91,13.97,31.47,0,110.4,13.34,13.71,89.5
"2010-04-16 00:31:00",29322,7.832,130.8,10.04,1.467,16.8,105.3134,12.87,14.18,31.68,0,110.4,13.3,13.67,92.8
"2010-04-16 00:31:30",29323,7.856,123.3,6.699,1.602,15.53,105.3073,12.86,14.11,31.56,0,110.4,13.31,13.66,85.3
"2010-04-16 00:32:00",29324,8.65,130.1,6.941,1.299,16.44,105.3089,12.86,14.15,31.62,0,110.4,13.3,13.66,92.1
"2010-04-16 00:32:30",29325,8.77,127.8,5.813,1.282,14.6,105.3109,12.87,14.15,31.68,0,110.4,13.3,13.67,89.8
"2010-04-16 00:33:00",29326,8.45,123.6,6.742,1.014,13.36,105.3109,12.87,13.96,31.41,0,110.4,13.3,13.67,85.6
"2010-04-16 00:33:30",29327,7.276,120.4,1.002,0.166,12.02,105.3107,12.87,13.87,31.3,0,110.4,13.34,13.66,82.4
"2010-04-16 00:34:00",29328,7.419,114.9,1.687,0.161,12.44,105.3033,12.85,13.86,31.43,0,110.4,13.34,13.65,76.9
"2010-04-16 00:34:30",29329,7.748,118.7,2.51,0.207,13.2,105.2887,12.81,13.94,31.42,0,110.4,13.33,13.61,80.7
"2010-04-16 00:35:00",29330,9.25,125.5,8.28,1.223,17.18,105.278,12.78,14.05,31.61,0,110.4,13.3,13.58,87.5
"2010-04-16 00:35:30",29331,9.25,116.7,6.794,1.332,16.36,105.2774,12.78,14.1,31.93,0,110.4,13.3,13.58,78.7
"2010-04-16 00:36:00",29332,9.68,120.2,7.487,1.222,15.6,105.2774,12.78,13.98,31.46,0,110.4,13.3,13.58,82.2
"2010-04-16 00:36:30",29333,9.76,115.6,7.799,1.251,16.04,105.2774,12.78,14.01,31.46,0,110.4,13.3,13.58,77.6
"2010-04-16 00:37:00",29334,8.59,113.2,6.171,1.423,14.39,105.2774,12.78,13.93,31.32,0,110.4,13.3,13.58,75.2
"2010-04-16 00:37:30",29335,7.202,110.8,2.688,0.278,12.07,105.2774,12.78,13.78,31.52,0,110.4,13.33,13.58,72.8
"2010-04-16 00:38:00",29336,7.164,109.9,2.1,0.228,12.31,105.2723,12.77,13.78,31.53,0,110.4,13.33,13.57,71.9
"2010-04-16 00:38:30",29337,7.966,112.6,1.122,0.222,12.68,105.2684,12.76,13.77,31.85,0,110.4,13.33,13.56,74.6
"2010-04-16 00:39:00",29338,8.92,121.8,6.826,1.4,15.95,105.2548,12.72,14.04,32.14,0,110.4,13.3,13.52,83.8
"2010-04-16 00:39:30",29339,9.95,126.9,6.367,1.21,17,105.2441,12.7,14.02,32.08,0,110.4,13.3,13.49,88.9
"2010-04-16 00:40:00",29340,8.36,120.6,8.91,1.176,15.26,105.2436,12.7,13.96,32.07,0,110.4,13.31,13.49,82.6
"2010-04-16 00:40:30",29341,8.78,124.7,6.98,1.206,15.98,105.2436,12.7,13.97,31.96,0,110.4,13.31,13.49,86.7
"2010-04-16 00:41:00",29342,7.134,115.5,5.59,1.065,13.66,105.2436,12.7,13.9,31.93,0,110.3,13.31,13.49,77.5
"2010-04-16 00:41:30",29343,6.495,117.4,3.432,0.272,11.88,105.2436,12.7,13.72,31.75,0,110.4,13.34,13.49,79.4
"2010-04-16 00:42:00",29344,6.179,113,2.957,0.286,12.07,105.2433,12.7,13.7,31.8,0,110.3,13.35,13.49,75.0
"2010-04-16 00:42:30",29345,6.331,111.1,4.145,0.215,12.53,105.2388,12.68,13.71,31.81,0,110.3,13.35,13.48,73.1
"2010-04-16 00:43:00",29346,7.038,115.2,3.602,0.694,13.5,105.2326,12.67,13.84,31.94,0,110.3,13.35,13.46,77.2
"2010-04-16 00:43:30",29347,8.86,125,7.255,1.234,16.97,105.2227,12.64,13.95,32.04,0,110.3,13.31,13.44,87.0
"2010-04-16 00:44:00",29348,8.95,117.4,7.411,1.354,15.78,105.2112,12.61,13.91,32.01,0,110.3,13.31,13.41,79.4
"2010-04-16 00:44:30",29349,8.46,115.6,7.428,1.524,15.51,105.2097,12.61,13.89,31.97,0,110.3,13.31,13.41,77.6
"2010-04-16 00:45:00",29350,7.105,122,4.13,1.129,14.22,105.2097,12.61,13.88,31.97,0,110.3,13.31,13.41,84.0
"2010-04-16 00:45:30",29351,5.84,119.6,2.529,0.162,11.81,105.2097,12.61,13.69,31.82,0,110.3,13.35,13.41,81.6
"2010-04-16 00:46:00",29352,6.136,114.5,1.52,0.107,11.85,105.2097,12.61,13.65,31.8,0,110.3,13.35,13.41,76.5
"2010-04-16 00:46:30",29353,6.292,117.7,1.231,0.117,12.24,105.2097,12.61,13.64,31.8,0,110.3,13.35,13.41,79.7
"2010-04-16 00:47:00",29354,6.417,112.8,3.296,0.192,12.7,105.2097,12.61,13.64,31.79,0,110.3,13.35,13.41,74.8
"2010-04-16 00:47:30",29355,7.567,110.9,5.209,1.282,14.56,105.2097,12.61,13.78,31.95,0,110.3,13.31,13.41,72.9
"2010-04-16 00:48:00",29356,8.47,119.7,7.063,1.306,17.1,105.2097,12.61,13.87,32.06,0,110.3,13.31,13.41,81.7
"2010-04-16 00:48:30",29357,7.893,119.1,7.219,1.437,16.12,105.2086,12.61,13.89,32.15,0,110.3,13.31,13.40,81.1
"2010-04-16 00:49:00",29358,8.33,117.2,6.086,1.312,15.23,105.2021,12.59,13.87,32.19,0,110.3,13.31,13.39,79.2
"2010-04-16 00:49:30",29359,7.979,116,6.798,1.074,13.53,105.1889,12.56,13.68,32.12,0,110.3,13.31,13.35,78.0
"2010-04-16 00:50:00",29360,7.113,111.6,1.465,0.225,11.77,105.1849,12.55,13.63,32.08,0,110.3,13.35,13.34,73.6
"2010-04-16 00:50:30",29361,6.453,108.3,1.874,0.254,12.04,105.1799,12.53,13.61,32.08,0,110.3,13.35,13.33,70.3
"2010-04-16 00:51:00",29362,6.482,107.3,2.241,0.09,12.52,105.1782,12.53,13.6,32.11,0,110.3,13.35,13.32,69.3
"2010-04-16 00:51:30",29363,7.081,111.6,6.83,1.367,13.76,105.1771,12.53,13.62,32.14,0,110.3,13.31,13.32,73.6
"2010-04-16 00:52:00",29364,8.15,118.2,6.842,1.451,16.04,105.1795,12.53,13.86,32.39,0,110.3,13.31,13.33,80.2
"2010-04-16 00:52:30",29365,8.36,120.8,7.223,1.212,16.01,105.1792,12.53,13.75,32.36,0,110.3,13.31,13.33,82.8
"2010-04-16 00:53:00",29366,8.37,119.5,6.68,1.29,15.96,105.1807,12.53,13.85,32.45,0,110.3,13.31,13.33,81.5
"2010-04-16 00:53:30",29367,7.725,117.5,6.301,1.35,14.23,105.183,12.54,13.76,32.39,0,110.3,13.31,13.34,79.5
"2010-04-16 00:54:00",29368,6.623,110.6,1.588,0.137,11.81,105.1872,12.55,13.57,32.25,0,110.3,13.34,13.35,72.6
"2010-04-16 00:54:30",29369,6.529,111.5,2.182,0.107,11.89,105.1845,12.54,13.57,32.22,0,110.3,13.35,13.34,73.5
"2010-04-16 00:55:00",29370,7.001,116,2.635,0.395,12.2,105.1864,12.55,13.56,32.64,0,110.3,13.35,13.35,78.0
"2010-04-16 00:55:30",29371,7.05,118.6,1.819,0.144,12.93,105.1779,12.53,13.61,32.62,0,110.3,13.35,13.32,80.6
"2010-04-16 00:56:00",29372,9,125.5,5.942,1.21,17.09,105.1633,12.49,13.82,32.81,0,110.3,13.31,13.29,87.5
"2010-04-16 00:56:30",29373,9.38,128.8,7.363,1.255,16.49,105.1584,12.48,13.84,32.93,0,110.3,13.32,13.27,90.8
"2010-04-16 00:57:00",29374,9.53,127,6.356,1.279,16.19,105.1593,12.48,13.75,33.48,0,110.3,13.32,13.28,89.0
"2010-04-16 00:57:30",29375,9.33,122.6,7.09,1.211,15.05,105.1599,12.48,13.72,33.49,0,110.3,13.32,13.28,84.6
"2010-04-16 00:58:00",29376,7.761,112.8,1.297,0.167,11.8,105.1584,12.48,13.53,33.27,0,110.3,13.35,13.27,74.8
"2010-04-16 00:58:30",29377,7.406,111.6,2.412,0.216,11.99,105.1608,12.48,13.51,33.18,0,110.3,13.35,13.28,73.6
"2010-04-16 00:59:00",29378,7.722,114.6,0.73,0.123,12.28,105.1533,12.46,13.5,33.42,0,110.3,13.35,13.26,76.6
"2010-04-16 00:59:30",29379,9,119.3,5.831,1.28,14.92,105.148,12.45,13.69,33.73,0,110.3,13.32,13.25,81.3
"2010-04-16 01:00:00",29380,9.32,122.2,7.77,1.318,15.84,105.1362,12.42,13.72,33.76,0,110.3,13.32,13.22,84.2
"2010-04-16 01:00:30",29381,9.36,126,6.591,1.223,16.6,105.1334,12.41,13.73,33.76,0,110.3,13.32,13.21,88.0
"2010-04-16 01:01:00",29382,8.82,124.1,7.439,1.437,15.75,105.1343,12.42,13.7,33.76,0,110.3,13.32,13.21,86.1
"2010-04-16 01:01:30",29383,8.9,119.2,6.608,1.124,13.63,105.1361,12.42,13.53,33.77,0,110.3,13.32,13.22,81.2
"2010-04-16 01:02:00",29384,7.933,114.6,2.655,0.17,11.7,105.1306,12.41,13.43,33.81,0,110.3,13.35,13.20,76.6
"2010-04-16 01:02:30",29385,8.21,114.1,1.188,0.096,11.9,105.1141,12.36,13.42,33.94,0,110.3,13.36,13.16,76.1
"2010-04-16 01:03:00",29386,8.75,116.9,4.722,1.045,13.38,105.1088,12.35,13.46,33.92,0,110.3,13.32,13.15,78.9
"2010-04-16 01:03:30",29387,10.34,123.6,5.891,1.234,16.08,105.1097,12.35,13.57,33.99,0,110.3,13.32,13.15,85.6
"2010-04-16 01:04:00",29388,10.08,120.6,6.035,1.298,16.09,105.1094,12.35,13.65,33.99,0,110.3,13.32,13.15,82.6
"2010-04-16 01:04:30",29389,10.39,121.3,6.562,1.175,16.12,105.106,12.34,13.62,33.9,0,110.4,13.32,13.14,83.3
"2010-04-16 01:05:00",29390,10,122,6.618,1.301,15.38,105.0947,12.31,13.62,34.13,0,110.3,13.32,13.11,84.0
"2010-04-16 01:05:30",29391,8.69,116.7,4.611,0.829,12.24,105.0815,12.28,13.4,34.16,0,110.3,13.32,13.08,78.7
"2010-04-16 01:06:00",29392,8.54,116.3,1.415,0.165,11.72,105.0761,12.27,13.33,34.29,0,110.3,13.36,13.06,78.3
"2010-04-16 01:06:30",29393,8.73,117,0.795,0.093,12.11,105.0761,12.27,13.31,34.31,0,110.3,13.36,13.06,79.0
"2010-04-16 01:07:00",29394,10.2,123.4,5.759,1.323,15.62,105.0756,12.27,13.57,34.49,0,110.3,13.32,13.06,85.4
"2010-04-16 01:07:30",29395,10.38,120.3,6.407,1.339,16.02,105.0657,12.24,13.54,34.45,0,110.3,13.32,13.04,82.3
"2010-04-16 01:08:00",29396,10.74,123.6,6.497,1.265,15.87,105.046,12.19,13.57,34.57,0,110.3,13.32,12.98,85.6
"2010-04-16 01:08:30",29397,10.73,123.6,5.907,1.307,15.44,105.0423,12.18,13.45,34.48,0,110.3,13.32,12.98,85.6
"2010-04-16 01:09:00",29398,9.04,114.1,1.444,0.143,11.82,105.0423,12.18,13.27,34.32,0,110.3,13.35,12.98,76.1
"2010-04-16 01:09:30",29399,9.12,116,1.635,0.21,11.66,105.0423,12.18,13.24,34.36,0,110.3,13.35,12.98,78.0
"2010-04-16 01:10:00",29400,8.69,114.5,1.031,0.191,12.06,105.0415,12.18,13.22,34.35,0,110.3,13.35,12.97,76.5
"2010-04-16 01:10:30",29401,10.02,123.1,7.216,1.265,15.83,105.0355,12.16,13.4,34.59,0,110.3,13.31,12.96,85.1
"2010-04-16 01:11:00",29402,10.4,125.2,6.283,1.182,16.35,105.0186,12.12,13.44,34.65,0,110.3,13.32,12.91,87.2
"2010-04-16 01:11:30",29403,10.01,120.9,7.27,1.373,15.65,105.0085,12.09,13.45,34.75,0,110.3,13.32,12.89,82.9
"2010-04-16 01:12:00",29404,10.44,123.8,6.824,1.144,15.29,105.0085,12.09,13.36,34.8,0,110.3,13.32,12.89,85.8
"2010-04-16 01:12:30",29405,10.32,123.2,8.35,1.479,14.29,105.0085,12.09,13.3,34.77,0,110.3,13.32,12.89,85.2
"2010-04-16 01:13:00",29406,9.13,114.2,1.325,0.118,11.72,105.0085,12.09,13.13,34.6,0,110.3,13.36,12.89,76.2
"2010-04-16 01:13:30",29407,8.97,114.6,1.167,0.125,12.06,105.0085,12.09,13.14,34.55,0,110.3,13.36,12.89,76.6
"2010-04-16 01:14:00",29408,9.39,117.9,6.162,1.17,14.17,105.0056,12.09,13.31,34.81,0,110.3,13.33,12.88,79.9
"2010-04-16 01:14:30",29409,10.59,124.4,6.913,1.243,16.4,104.9989,12.07,13.37,34.94,0,110.3,13.33,12.86,86.4
"2010-04-16 01:15:00",29410,10.19,123.7,5.241,1.322,16.12,104.9859,12.04,13.34,34.9,0,110.3,13.33,12.83,85.7
"2010-04-16 01:15:30",29411,10.03,121.9,5.976,1.359,14.86,104.9752,12.01,13.33,34.88,0,110.3,13.33,12.80,83.9
"2010-04-16 01:16:00",29412,9.26,118.8,6.166,1.121,12.88,104.9746,12.01,13.13,34.69,0,110.3,13.33,12.80,80.8
"2010-04-16 01:16:30",29413,9,115.4,0.832,0.105,11.67,104.9746,12.01,13.07,34.89,0,110.3,13.36,12.80,77.4
"2010-04-16 01:17:00",29414,8.89,115.5,0.364,0.097,11.94,104.9746,12.01,13.06,34.9,0,110.3,13.36,12.80,77.5
"2010-04-16 01:17:30",29415,9.19,118.8,4.099,0.927,12.92,104.9746,12.01,13.1,34.97,0,110.3,13.33,12.80,80.8
"2010-04-16 01:18:00",29416,10.48,127,6.327,1.213,16.3,104.9746,12.01,13.31,35.2,0,110.3,13.33,12.80,89.0
"2010-04-16 01:18:30",29417,10.33,125.1,6.164,1.088,16.29,104.974,12.01,13.2,35.1,0,110.3,13.33,12.80,87.1
"2010-04-16 01:19:00",29418,9.77,122.4,6.064,1.291,15.52,104.9701,12,13.29,35.07,0,110.3,13.33,12.79,84.4
"2010-04-16 01:19:30",29419,8.81,117.3,5.599,0.964,12.63,104.9608,11.97,13.16,34.92,0,110.3,13.33,12.77,79.3
"2010-04-16 01:20:00",29420,8.36,114.5,0.702,0.115,11.61,104.956,11.96,13.01,34.74,0,110.3,13.36,12.75,76.5
"2010-04-16 01:20:30",29421,8.38,113.3,0.852,0.124,11.86,104.9492,11.94,13.02,34.8,0,110.3,13.36,12.74,75.3
"2010-04-16 01:21:00",29422,8.59,116.5,4.237,0.946,12.8,104.9461,11.93,13.11,34.99,0,110.3,13.33,12.73,78.5
"2010-04-16 01:21:30",29423,10.73,124.5,5.995,1.186,16.32,104.9416,11.92,13.24,35.2,0,110.3,13.33,12.72,86.5
"2010-04-16 01:22:00",29424,10.63,122.2,6.966,1.272,15.84,104.9411,11.92,13.24,35.31,0,110.4,13.33,12.72,84.2
"2010-04-16 01:22:30",29425,10.33,123.2,6.588,1.298,15.13,104.9408,11.92,13.24,35.36,0,110.3,13.33,12.71,85.2
"2010-04-16 01:23:00",29426,10.01,120.9,7.348,1.242,14.42,104.942,11.92,13.21,35.32,0,110.3,13.33,12.72,82.9
"2010-04-16 01:23:30",29427,8.82,116.7,0.384,0.069,11.57,104.9414,11.92,12.97,35.04,0,110.3,13.36,12.72,78.7
"2010-04-16 01:24:00",29428,8.7,117.3,0.591,0.069,11.78,104.9431,11.93,12.97,35.07,0,110.3,13.36,12.72,79.3
"2010-04-16 01:24:30",29429,8.79,118.5,3.418,0.556,12.78,104.9443,11.93,13.01,35.32,0,110.3,13.33,12.72,80.5
"2010-04-16 01:25:00",29430,10.92,126.7,6.537,1.179,16.31,104.9421,11.92,13.22,35.55,0,110.3,13.33,12.72,88.7
"2010-04-16 01:25:30",29431,11.23,128.5,6.121,1.112,16.26,104.9377,11.91,13.21,35.6,0,110.3,13.33,12.71,90.5
"2010-04-16 01:26:00",29432,11.13,129.2,5.585,1.079,16.02,104.9273,11.89,13.15,35.61,0,110.3,13.33,12.68,91.2
"2010-04-16 01:26:30",29433,9.7,122.3,6.12,1.19,13.15,104.914,11.85,13.03,35.5,0,110.3,13.33,12.65,84.3
"2010-04-16 01:27:00",29434,8.93,117.9,0.369,0.076,11.61,104.9158,11.86,12.93,35.38,0,110.3,13.36,12.65,79.9
"2010-04-16 01:27:30",29435,8.88,117.9,0.534,0.064,11.84,104.9158,11.86,12.92,35.34,0,110.3,13.36,12.65,79.9
"2010-04-16 01:28:00",29436,10.11,123.8,6.767,1.305,14.31,104.9179,11.86,12.93,35.32,0,110.3,13.33,12.66,85.8
"2010-04-16 01:28:30",29437,10.49,127.1,6.67,1.283,15.99,104.9229,11.88,13.16,35.56,0,110.3,13.33,12.67,89.1
"2010-04-16 01:29:00",29438,10.56,125.5,6.803,1.273,15.51,104.9208,11.87,13.17,35.59,0,110.3,13.33,12.66,87.5
"2010-04-16 01:29:30",29439,10.28,124.3,6.747,1.28,15.08,104.9244,11.88,13.14,35.56,0,110.3,13.33,12.67,86.3
"2010-04-16 01:30:00",29440,10.47,125.8,6.893,1.239,15.02,104.9241,11.88,13.05,35.44,0,110.3,13.33,12.67,87.8
"2010-04-16 01:30:30",29441,8.59,115.8,1.005,0.088,11.64,104.9253,11.88,12.87,35.31,0,110.3,13.37,12.67,77.8
"2010-04-16 01:31:00",29442,8.5,116.4,1.14,0.107,11.89,104.9268,11.88,12.88,35.26,0,110.3,13.37,12.68,78.4
"2010-04-16 01:31:30",29443,9.61,120.9,6.472,1.269,13.72,104.926,11.88,12.9,35.32,0,110.3,13.34,12.68,82.9
"2010-04-16 01:32:00",29444,10.82,124.5,6.623,1.232,16.31,104.9247,11.88,13.14,35.59,0,110.3,13.34,12.67,86.5
"2010-04-16 01:32:30",29445,10.29,125.7,5.988,1.288,16.03,104.9257,11.88,13.13,35.58,0,110.3,13.34,12.68,87.7
"2010-04-16 01:33:00",29446,10.16,125.4,6.56,1.19,15.62,104.9252,11.88,13.08,35.49,0,110.3,13.34,12.67,87.4
"2010-04-16 01:33:30",29447,9.62,121.7,6.535,1.262,14.33,104.925,11.88,12.95,35.36,0,110.3,13.34,12.67,83.7
"2010-04-16 01:34:00",29448,8.47,115.9,1.521,0.123,11.64,104.9254,11.88,12.85,35.33,0,110.3,13.37,12.68,77.9
"2010-04-16 01:34:30",29449,8.2,117.4,0.6,0.108,11.76,104.9265,11.88,12.85,35.35,0,110.3,13.37,12.68,79.4
"2010-04-16 01:35:00",29450,8.49,119.9,5.695,1.002,13.67,104.9228,11.87,13.01,35.41,0,110.3,13.34,12.67,81.9
"2010-04-16 01:35:30",29451,9.68,127,6.317,1.247,16.38,104.9212,11.87,13.07,35.47,0,110.3,13.34,12.66,89.0
"2010-04-16 01:36:00",29452,9.59,124.6,6.983,1.264,15.62,104.9261,11.88,13.09,35.48,0,110.2,13.34,12.68,86.6
"2010-04-16 01:36:30",29453,9.39,125.9,6.687,1.34,15.02,104.9232,11.88,13.05,35.39,0,110.3,13.34,12.67,87.9
"2010-04-16 01:37:00",29454,8.98,124.6,7.399,1.347,14.05,104.9272,11.89,12.93,35.25,0,110.3,13.34,12.68,86.6
"2010-04-16 01:37:30",29455,7.525,116.6,0.689,0.063,11.56,104.9283,11.89,12.92,35.23,0,110.3,13.37,12.68,78.6
"2010-04-16 01:38:00",29456,7.397,118.5,1.28,0.113,11.73,104.9264,11.88,12.84,35.16,0,110.3,13.38,12.68,80.5
"2010-04-16 01:38:30",29457,7.86,121.6,5.674,0.873,13.19,104.9247,11.88,12.98,35.32,0,110.3,13.34,12.67,83.6
"2010-04-16 01:39:00",29458,8.8,125.8,6.691,1.275,15.28,104.9244,11.88,13.01,35.3,0,110.3,13.34,12.67,87.8
"2010-04-16 01:39:30",29459,8.87,126.9,6.766,1.228,15.85,104.9269,11.89,13.05,35.34,0,110.3,13.34,12.68,88.9
"2010-04-16 01:40:00",29460,8.87,126.7,6.404,1.268,15.55,104.9244,11.88,13.14,35.43,0,110.3,13.34,12.67,88.7
"2010-04-16 01:40:30",29461,8.97,127.4,6.243,1.266,15.25,104.9278,11.89,13.03,35.38,0,110.3,13.34,12.68,89.4
"2010-04-16 01:41:00",29462,7.417,119,2.867,0.711,11.81,104.9286,11.89,12.88,35.24,0,110.3,13.34,12.68,81.0
"2010-04-16 01:41:30",29463,7.035,118.4,1.478,0.105,11.61,104.9317,11.9,12.85,35.16,0,110.3,13.37,12.69,80.4
"2010-04-16 01:42:00",29464,6.937,117.7,1.199,0.142,12,104.9303,11.89,12.84,35.13,0,110.3,13.37,12.69,79.7
"2010-04-16 01:42:30",29465,8.63,123.3,7.012,1.288,14.65,104.9292,11.89,13.01,35.39,0,110.3,13.33,12.68,85.3
"2010-04-16 01:43:00",29466,9.24,125.8,6.681,1.328,16.02,104.9261,11.88,13.13,35.56,0,110.3,13.34,12.68,87.8
"2010-04-16 01:43:30",29467,9.78,125.4,6.39,1.213,15.86,104.9249,11.88,13.11,35.71,0,110.3,13.33,12.67,87.4
"2010-04-16 01:44:00",29468,9.43,123.4,6.695,1.322,14.56,104.9207,11.87,13.11,35.8,0,110.3,13.34,12.66,85.4
"2010-04-16 01:44:30",29469,9.28,123.5,7.185,1.367,14.12,104.9156,11.86,12.93,35.59,0,110.3,13.33,12.65,85.5
"2010-04-16 01:45:00",29470,8.07,116.6,0.578,0.099,11.6,104.9128,11.85,12.85,35.54,0,110.3,13.37,12.64,78.6
"2010-04-16 01:45:30",29471,8.38,116.4,3.87,0.688,12.51,104.9086,11.84,12.92,35.61,0,110.2,13.34,12.63,78.4
"2010-04-16 01:46:00",29472,9.24,119.4,6.327,1.309,13.85,104.9086,11.84,12.89,35.51,0,110.3,13.34,12.63,81.4
"2010-04-16 01:46:30",29473,10.08,122.6,6.529,1.281,15.75,104.9086,11.84,13.1,35.75,0,110.3,13.34,12.63,84.6
"2010-04-16 01:47:00",29474,10.32,124.4,5.651,1.225,16.1,104.9086,11.84,13.08,35.87,0,110.3,13.34,12.63,86.4
"2010-04-16 01:47:30",29475,9.76,120.2,6.865,1.307,14.4,104.9086,11.84,13.04,35.94,0,110.3,13.34,12.63,82.2
"2010-04-16 01:48:00",29476,9.82,120.2,6.506,1.294,14.16,104.9086,11.84,13,35.9,0,110.3,13.34,12.63,82.2
"2010-04-16 01:48:30",29477,8.64,113.5,0.433,0.074,11.68,104.9086,11.84,12.83,35.84,0,110.3,13.38,12.63,75.5
"2010-04-16 01:49:00",29478,8.64,113.8,0.477,0.481,11.9,104.9058,11.83,12.82,35.94,0,110.3,13.34,12.62,75.8
"2010-04-16 01:49:30",29479,9.5,119.3,7.038,1.301,14.13,104.9013,11.82,12.98,36.13,0,110.3,13.34,12.61,81.3
"2010-04-16 01:50:00",29480,10.13,121.3,7.032,1.282,15.05,104.8911,11.79,13.03,36.17,0,110.3,13.34,12.59,83.3